Time,TemperatureF,DewpointF,PressureIn,WindDirection,WindDirectionDegrees,WindSpeedMPH,WindSpeedGustMPH,Humidity,HourlyPrecipIn,Conditions,Clouds,dailyrainin,SoftwareType,DateUTC
2013-05-19 00:13:00,61.9,56.0,29.95,SE,139,2.0,2.0,81,0.00,,,0.00,weatherlink.com 1.10,2013-05-19 07:13:00,
2013-05-19 00:28:00,61.7,56.0,29.95,WSW,249,0.0,1.0,81,0.00,,,0.00,weatherlink.com 1.10,2013-05-19 07:28:00,
2013-05-19 00:43:00,61.0,55.0,29.95,WSW,249,0.0,0.0,81,0.00,,,0.00,weatherlink.com 1.10,2013-05-19 07:43:00,
2013-05-19 00:58:00,61.4,56.0,29.95,WSW,249,0.0,1.0,82,0.00,,,0.00,weatherlink.com 1.10,2013-05-19 07:58:00,
2013-05-19 01:13:00,61.2,56.0,29.95,SW,236,0.0,1.0,83,0.00,,,0.00,weatherlink.com 1.10,2013-05-19 08:13:00,
2013-05-19 01:28:00,61.1,56.0,29.95,SW,235,0.0,0.0,84,0.00,,,0.00,weatherlink.com 1.10,2013-05-19 08:28:00,
2013-05-19 01:43:00,60.9,56.0,29.94,SW,236,0.0,0.0,84,0.00,,,0.00,weatherlink.com 1.10,2013-05-19 08:43:00,
2013-05-19 01:58:00,61.0,57.0,29.94,SW,236,0.0,1.0,85,0.00,,,0.00,weatherlink.com 1.10,2013-05-19 08:58:00,
2013-05-19 02:13:00,60.6,56.0,29.94,SW,236,0.0,1.0,85,0.00,,,0.00,weatherlink.com 1.10,2013-05-19 09:13:00,
2013-05-19 02:28:00,60.2,56.0,29.94,SW,236,0.0,1.0,86,0.00,,,0.00,weatherlink.com 1.10,2013-05-19 09:28:00,
2013-05-19 02:43:00,60.3,56.0,29.94,SW,234,0.0,1.0,86,0.00,,,0.00,weatherlink.com 1.10,2013-05-19 09:43:00,
2013-05-19 02:58:00,60.2,56.0,29.94,SW,233,1.0,1.0,86,0.00,,,0.00,weatherlink.com 1.10,2013-05-19 09:58:00,
2013-05-19 03:13:00,60.3,56.0,29.94,SW,234,0.0,0.0,86,0.00,,,0.00,weatherlink.com 1.10,2013-05-19 10:13:00,
2013-05-19 03:28:00,60.7,57.0,29.94,SW,221,0.0,1.0,86,0.00,,,0.00,weatherlink.com 1.10,2013-05-19 10:28:00,
2013-05-19 03:43:00,61.4,57.0,29.94,SSW,208,0.0,1.0,85,0.00,,,0.00,weatherlink.com 1.10,2013-05-19 10:43:00,
2013-05-19 03:58:00,62.1,57.0,29.94,ESE,117,0.0,0.0,83,0.00,,,0.00,weatherlink.com 1.10,2013-05-19 10:58:00,
2013-05-19 04:13:00,62.0,56.0,29.94,ESE,118,0.0,1.0,82,0.00,,,0.00,weatherlink.com 1.10,2013-05-19 11:13:00,
2013-05-19 04:28:00,61.6,56.0,29.94,ESE,118,0.0,0.0,83,0.00,,,0.00,weatherlink.com 1.10,2013-05-19 11:28:00,
2013-05-19 04:43:00,61.6,57.0,29.94,ESE,117,0.0,1.0,84,0.00,,,0.00,weatherlink.com 1.10,2013-05-19 11:43:00,
2013-05-19 04:58:00,62.0,57.0,29.93,SSE,160,1.0,2.0,84,0.00,,,0.00,weatherlink.com 1.10,2013-05-19 11:58:00,
2013-05-19 05:13:00,62.6,57.0,29.93,SSE,152,0.0,2.0,81,0.00,,,0.00,weatherlink.com 1.10,2013-05-19 12:13:00,
2013-05-19 05:28:00,63.1,57.0,29.93,SE,142,1.0,5.0,80,0.00,,,0.00,weatherlink.com 1.10,2013-05-19 12:28:00,
2013-05-19 05:43:00,63.3,57.0,29.94,SSE,164,0.0,2.0,79,0.00,,,0.00,weatherlink.com 1.10,2013-05-19 12:43:00,
2013-05-19 05:58:00,63.5,57.0,29.94,SE,132,0.0,2.0,80,0.00,,,0.00,weatherlink.com 1.10,2013-05-19 12:58:00,
2013-05-19 06:13:00,63.4,57.0,29.94,SE,132,1.0,1.0,80,0.00,,,0.00,weatherlink.com 1.10,2013-05-19 13:13:00,
2013-05-19 06:28:00,63.6,57.0,29.94,SE,136,0.0,3.0,79,0.00,,,0.00,weatherlink.com 1.10,2013-05-19 13:28:00,
2013-05-19 06:43:00,64.3,57.0,29.94,SE,145,2.0,4.0,77,0.00,,,0.00,weatherlink.com 1.10,2013-05-19 13:43:00,
2013-05-19 06:58:00,64.4,57.0,29.95,SE,145,1.0,4.0,77,0.00,,,0.00,weatherlink.com 1.10,2013-05-19 13:58:00,
2013-05-19 07:13:00,64.4,57.0,29.95,ESE,112,2.0,5.0,76,0.00,,,0.00,weatherlink.com 1.10,2013-05-19 14:13:00,
2013-05-19 07:28:00,65.2,57.0,29.95,SSE,148,1.0,5.0,75,0.00,,,0.00,weatherlink.com 1.10,2013-05-19 14:28:00,
2013-05-19 07:44:00,65.3,56.0,29.95,SE,125,3.0,4.0,73,0.00,,,0.00,weatherlink.com 1.10,2013-05-19 14:44:00,
2013-05-19 07:59:00,65.8,56.0,29.95,East,87,2.0,4.0,71,0.00,,,0.00,weatherlink.com 1.10,2013-05-19 14:59:00,
2013-05-19 08:14:00,65.8,56.0,29.95,SE,127,0.0,3.0,70,0.00,,,0.00,weatherlink.com 1.10,2013-05-19 15:14:00,
2013-05-19 08:29:00,66.6,56.0,29.95,WSW,249,2.0,6.0,69,0.00,,,0.00,weatherlink.com 1.10,2013-05-19 15:29:00,
2013-05-19 08:44:00,67.0,56.0,29.95,SW,236,1.0,5.0,69,0.00,,,0.00,weatherlink.com 1.10,2013-05-19 15:44:00,
2013-05-19 08:59:00,67.1,56.0,29.95,SSW,198,4.0,5.0,68,0.00,,,0.00,weatherlink.com 1.10,2013-05-19 15:59:00,
2013-05-19 09:14:00,67.4,56.0,29.95,SE,136,2.0,4.0,67,0.00,,,0.00,weatherlink.com 1.10,2013-05-19 16:14:00,
2013-05-19 09:29:00,67.9,57.0,29.95,SE,134,2.0,3.0,68,0.00,,,0.00,weatherlink.com 1.10,2013-05-19 16:29:00,
2013-05-19 09:44:00,69.3,57.0,29.94,WSW,255,3.0,6.0,65,0.00,,,0.00,weatherlink.com 1.10,2013-05-19 16:44:00,
2013-05-19 09:59:00,70.4,57.0,29.94,SSW,205,5.0,8.0,63,0.00,,,0.00,weatherlink.com 1.10,2013-05-19 16:59:00,
2013-05-19 10:14:00,71.6,57.0,29.94,SW,236,3.0,9.0,61,0.00,,,0.00,weatherlink.com 1.10,2013-05-19 17:14:00,
2013-05-19 10:29:00,71.8,58.0,29.93,SSE,155,1.0,6.0,62,0.00,,,0.00,weatherlink.com 1.10,2013-05-19 17:29:00,
2013-05-19 10:44:00,71.7,57.0,29.92,West,262,4.0,11.0,61,0.00,,,0.00,weatherlink.com 1.10,2013-05-19 17:44:00,
2013-05-19 10:59:00,71.7,57.0,29.92,SE,146,5.0,7.0,61,0.00,,,0.00,weatherlink.com 1.10,2013-05-19 17:59:00,
2013-05-19 11:14:00,72.1,57.0,29.92,WSW,252,5.0,9.0,59,0.00,,,0.00,weatherlink.com 1.10,2013-05-19 18:14:00,
2013-05-19 11:29:00,72.0,57.0,29.92,SE,138,2.0,11.0,60,0.00,,,0.00,weatherlink.com 1.10,2013-05-19 18:29:00,
2013-05-19 11:44:00,72.0,57.0,29.92,SSE,152,4.0,8.0,60,0.00,,,0.00,weatherlink.com 1.10,2013-05-19 18:44:00,
2013-05-19 11:59:00,72.1,57.0,29.92,SW,236,6.0,8.0,60,0.00,,,0.00,weatherlink.com 1.10,2013-05-19 18:59:00,
2013-05-19 12:14:00,72.6,57.0,29.91,South,183,4.0,9.0,59,0.00,,,0.00,weatherlink.com 1.10,2013-05-19 19:14:00,
2013-05-19 12:29:00,72.9,57.0,29.91,WSW,238,5.0,9.0,58,0.00,,,0.00,weatherlink.com 1.10,2013-05-19 19:29:00,
2013-05-19 12:44:00,73.3,58.0,29.91,West,263,4.0,7.0,59,0.00,,,0.00,weatherlink.com 1.10,2013-05-19 19:44:00,
2013-05-19 12:59:00,73.1,58.0,29.90,SE,136,2.0,9.0,59,0.00,,,0.00,weatherlink.com 1.10,2013-05-19 19:59:00,
2013-05-19 13:14:00,73.1,58.0,29.90,SE,146,4.0,9.0,59,0.00,,,0.00,weatherlink.com 1.10,2013-05-19 20:14:00,
2013-05-19 13:29:00,73.7,57.0,29.90,SE,125,3.0,10.0,57,0.00,,,0.00,weatherlink.com 1.10,2013-05-19 20:29:00,
2013-05-19 13:44:00,73.2,58.0,29.89,WSW,248,3.0,9.0,59,0.00,,,0.00,weatherlink.com 1.10,2013-05-19 20:44:00,
2013-05-19 13:59:00,74.0,59.0,29.89,SW,228,5.0,10.0,59,0.00,,,0.00,weatherlink.com 1.10,2013-05-19 20:59:00,
2013-05-19 14:14:00,75.0,59.0,29.89,SW,230,2.0,7.0,58,0.00,,,0.00,weatherlink.com 1.10,2013-05-19 21:14:00,
2013-05-19 14:29:00,74.2,58.0,29.88,SSW,212,5.0,9.0,57,0.00,,,0.00,weatherlink.com 1.10,2013-05-19 21:29:00,
2013-05-19 14:44:00,74.3,59.0,29.88,WSW,241,5.0,8.0,59,0.00,,,0.00,weatherlink.com 1.10,2013-05-19 21:44:00,
2013-05-19 14:59:00,74.8,59.0,29.88,WSW,247,2.0,8.0,59,0.00,,,0.00,weatherlink.com 1.10,2013-05-19 21:59:00,
2013-05-19 15:14:00,74.2,59.0,29.87,South,188,3.0,11.0,60,0.00,,,0.00,weatherlink.com 1.10,2013-05-19 22:14:00,
2013-05-19 15:29:00,74.5,59.0,29.87,SE,137,4.0,8.0,58,0.00,,,0.00,weatherlink.com 1.10,2013-05-19 22:29:00,
2013-05-19 15:44:00,74.3,58.0,29.87,SSE,150,3.0,12.0,58,0.00,,,0.00,weatherlink.com 1.10,2013-05-19 22:44:00,
2013-05-19 15:59:00,73.9,58.0,29.86,SSE,162,6.0,11.0,58,0.00,,,0.00,weatherlink.com 1.10,2013-05-19 22:59:00,
2013-05-19 16:14:00,74.6,58.0,29.86,WSW,241,5.0,7.0,57,0.00,,,0.00,weatherlink.com 1.10,2013-05-19 23:14:00,
2013-05-19 16:29:00,74.4,57.0,29.86,SW,222,8.0,10.0,55,0.00,,,0.00,weatherlink.com 1.10,2013-05-19 23:29:00,
2013-05-19 16:45:00,74.2,57.0,29.85,WSW,247,2.0,10.0,55,0.00,,,0.00,weatherlink.com 1.10,2013-05-19 23:45:00,
2013-05-19 17:00:00,74.7,57.0,29.85,SSW,203,6.0,9.0,55,0.00,,,0.00,weatherlink.com 1.10,2013-05-20 00:00:00,
2013-05-19 17:15:00,74.2,57.0,29.84,SW,223,6.0,10.0,55,0.00,,,0.00,weatherlink.com 1.10,2013-05-20 00:15:00,
2013-05-19 17:31:00,73.7,56.0,29.85,SW,227,5.0,10.0,55,0.00,,,0.00,weatherlink.com 1.10,2013-05-20 00:31:00,
2013-05-19 17:45:00,73.5,56.0,29.85,SW,233,4.0,9.0,55,0.00,,,0.00,weatherlink.com 1.10,2013-05-20 00:45:00,
2013-05-19 18:00:00,72.9,56.0,29.84,SW,222,1.0,11.0,56,0.00,,,0.00,weatherlink.com 1.10,2013-05-20 01:00:00,
2013-05-19 18:15:00,72.5,57.0,29.84,SE,136,4.0,10.0,58,0.00,,,0.00,weatherlink.com 1.10,2013-05-20 01:15:00,
2013-05-19 18:30:00,71.8,57.0,29.84,SW,221,3.0,9.0,59,0.00,,,0.00,weatherlink.com 1.10,2013-05-20 01:30:00,
2013-05-19 18:45:00,71.9,56.0,29.84,WSW,254,1.0,9.0,57,0.00,,,0.00,weatherlink.com 1.10,2013-05-20 01:45:00,
2013-05-19 19:00:00,71.3,56.0,29.84,SW,223,4.0,10.0,59,0.00,,,0.00,weatherlink.com 1.10,2013-05-20 02:00:00,
2013-05-19 19:15:00,70.4,57.0,29.84,WSW,257,1.0,8.0,62,0.00,,,0.00,weatherlink.com 1.10,2013-05-20 02:15:00,
2013-05-19 19:30:00,69.7,56.0,29.85,South,184,3.0,6.0,62,0.00,,,0.00,weatherlink.com 1.10,2013-05-20 02:30:00,
2013-05-19 19:45:00,68.5,57.0,29.85,SW,222,6.0,6.0,66,0.00,,,0.00,weatherlink.com 1.10,2013-05-20 02:45:00,
2013-05-19 20:00:00,67.7,57.0,29.85,SSW,204,2.0,5.0,69,0.00,,,0.00,weatherlink.com 1.10,2013-05-20 03:00:00,
2013-05-19 20:15:00,67.1,57.0,29.86,SW,218,0.0,4.0,70,0.00,,,0.00,weatherlink.com 1.10,2013-05-20 03:15:00,
2013-05-19 20:30:00,66.7,57.0,29.86,SSW,207,1.0,5.0,70,0.00,,,0.00,weatherlink.com 1.10,2013-05-20 03:30:00,
2013-05-19 20:45:00,66.5,57.0,29.86,SW,226,3.0,3.0,72,0.00,,,0.00,weatherlink.com 1.10,2013-05-20 03:45:00,
2013-05-19 21:00:00,66.3,58.0,29.87,WSW,254,1.0,3.0,74,0.00,,,0.00,weatherlink.com 1.10,2013-05-20 04:00:00,
2013-05-19 21:15:00,65.9,58.0,29.87,SSW,193,3.0,4.0,75,0.00,,,0.00,weatherlink.com 1.10,2013-05-20 04:15:00,
2013-05-19 21:30:00,65.8,59.0,29.87,SSW,200,2.0,4.0,78,0.00,,,0.00,weatherlink.com 1.10,2013-05-20 04:30:00,
2013-05-19 21:45:00,65.5,59.0,29.88,SSE,148,0.0,4.0,79,0.00,,,0.00,weatherlink.com 1.10,2013-05-20 04:45:00,
2013-05-19 22:00:00,65.4,59.0,29.88,ESE,123,2.0,3.0,80,0.00,,,0.00,weatherlink.com 1.10,2013-05-20 05:00:00,
2013-05-19 22:15:00,65.2,58.0,29.88,ESE,121,4.0,4.0,78,0.00,,,0.00,weatherlink.com 1.10,2013-05-20 05:15:00,
2013-05-19 22:30:00,65.1,58.0,29.89,SSE,160,1.0,3.0,78,0.00,,,0.00,weatherlink.com 1.10,2013-05-20 05:30:00,
2013-05-19 22:45:00,65.0,58.0,29.89,South,169,0.0,3.0,79,0.00,,,0.00,weatherlink.com 1.10,2013-05-20 05:45:00,
2013-05-19 23:00:00,64.8,58.0,29.88,SSE,155,0.0,4.0,79,0.00,,,0.00,weatherlink.com 1.10,2013-05-20 06:00:00,
2013-05-19 23:15:00,64.6,58.0,29.88,SSE,155,0.0,2.0,79,0.00,,,0.00,weatherlink.com 1.10,2013-05-20 06:15:00,
2013-05-19 23:30:00,64.2,58.0,29.89,SSE,155,0.0,1.0,80,0.00,,,0.00,weatherlink.com 1.10,2013-05-20 06:30:00,
2013-05-19 23:45:00,63.8,58.0,29.88,South,185,0.0,1.0,81,0.00,,,0.00,weatherlink.com 1.10,2013-05-20 06:45:00,